{"data":{"norad_id":63477,"intl_designator":"2025-070T","name":"STARLINK-33630","alt_names":[],"object_type":"PAYLOAD","status":"ACTIVE","operator":null,"country":"US","launch_date":"2025-04-06","launch_site_code":"AFETR","launch_vehicle":null,"mission":null,"orbit_class":"UNKNOWN","rcs_meters":null,"size_class":null,"mass_kg":null,"dimensions":null,"purposes":["comms"],"wikipedia_slug":null,"has_3d_model":false,"image_url":null,"decayed_at":null,"tle_current":{"epoch":"2026-05-24T20:07:48.414720Z","epoch_age_seconds":92286,"freshness":"FRESH","line1":"1 63477U 25070T   26144.83875480  .00010647  00000+0  39564-3 0  9998","line2":"2 63477  43.0036 186.1699 0003739 271.6640  88.3784 15.27596405 64667","mean_motion":15.27596405,"eccentricity":0.0003739,"inclination_deg":43.0036,"raan_deg":186.1699,"arg_perigee_deg":271.664,"mean_anomaly_deg":88.3784,"bstar":0.00039564,"rev_number":6466,"period_min":94.265736374262,"perigee_km":480.43459489301,"apogee_km":485.56535312218,"semimajor_km":6861.1369740076,"source":"CELESTRAK","updated_at":"2026-05-25T13:38:20.008710Z"}}}